Terminal Aerodrome Forecast
Issued by NWS Charleston, WV

Current Version | Previous Version | Text Only | Print | Product List | Glossary Off
Versions: 1 2 3 4 5 6 7 8 9 10 11 12 13 14 15 16 17 18 19 20 21

403
FTUS41 KRLX 161630 AAA
TAFEKN
TAF AMD
KEKN 161630Z 1617/1712 29011G17KT 6SM -SN BKN035
     FM162000 29011G17KT P6SM SCT150=

USA.gov is the U.S. government's official web portal to all federal, state and local government web resources and services.